,,PressureMeas_1m,,PRMeasQMR101_1,,RHStat155_1m_1,,SRMeasQMS101R_1m,,TAStat155_1m_1,,GenWind_1,,GenWind_1,
2017-04-18, 00:00:06,VALID,919.105,VALID,0.0,VALID,98.404,VALID,-0.03,VALID,21.063,VALID,314.0,VALID,0.107,
2017-04-18, 00:01:06,VALID,919.083,VALID,0.0,VALID,98.412,VALID,-0.037,VALID,21.054,VALID,336.0,VALID,0.325,
2017-04-18, 00:02:06,VALID,919.088,VALID,0.0,VALID,98.411,VALID,-0.04,VALID,21.049,VALID,340.0,VALID,0.204,
2017-04-18, 00:03:06,VALID,919.082,VALID,0.0,VALID,98.476,VALID,-0.052,VALID,21.097,VALID,346.0,VALID,0.198,
2017-04-18, 00:04:06,VALID,919.07,VALID,0.0,VALID,98.486,VALID,-0.034,VALID,21.139,VALID,14.0,VALID,0.365,
2017-04-18, 00:05:06,VALID,919.059,VALID,0.0,VALID,98.519,VALID,-0.028,VALID,21.176,VALID,16.0,VALID,0.215,
2017-04-18, 00:06:06,VALID,919.045,VALID,0.0,VALID,98.468,VALID,-0.015,VALID,21.12,VALID,31.0,VALID,0.371,
2017-04-18, 00:07:06,VALID,919.045,VALID,0.0,VALID,98.438,VALID,0.009,VALID,21.094,VALID,13.0,VALID,0.094,
2017-04-18, 00:08:06,VALID,919.03,VALID,0.0,VALID,98.439,VALID,-0.004,VALID,21.099,VALID,10.0,VALID,0.004,
2017-04-18, 00:09:06,VALID,919.017,VALID,0.0,VALID,98.408,VALID,-0.011,VALID,21.052,VALID,339.0,VALID,0.016,
2017-04-18, 00:10:06,VALID,919.008,VALID,0.0,VALID,98.41,VALID,0.012,VALID,21.055,VALID,280.0,VALID,0.127,
2017-04-18, 00:11:06,VALID,918.993,VALID,0.0,VALID,98.439,VALID,-0.007,VALID,21.063,VALID,266.0,VALID,0.022,
2017-04-18, 00:12:06,VALID,918.977,VALID,0.0,VALID,98.439,VALID,0.007,VALID,21.074,VALID,266.0,VALID,0.002,
2017-04-18, 00:13:06,VALID,918.958,VALID,0.0,VALID,98.46,VALID,0.002,VALID,21.079,VALID,266.0,VALID,0.121,
2017-04-18, 00:14:06,VALID,918.93,VALID,0.0,VALID,98.434,VALID,-0.008,VALID,21.06,VALID,266.0,VALID,0.003,
2017-04-18, 00:15:06,VALID,918.938,VALID,0.0,VALID,98.46,VALID,-0.006,VALID,21.06,VALID,328.0,VALID,0.339,
2017-04-18, 00:16:06,VALID,918.925,VALID,0.0,VALID,98.4,VALID,-0.018,VALID,21.011,VALID,359.0,VALID,0.214,
2017-04-18, 00:17:06,VALID,918.928,VALID,0.0,VALID,98.477,VALID,0.012,VALID,21.054,VALID,5.0,VALID,0.284,
2017-04-18, 00:18:06,VALID,918.93,VALID,0.0,VALID,98.514,VALID,-0.0,VALID,21.097,VALID,13.0,VALID,0.115,
2017-04-18, 00:19:06,VALID,918.937,VALID,0.0,VALID,98.51,VALID,-0.012,VALID,21.116,VALID,13.0,VALID,0.001,
2017-04-18, 00:20:06,VALID,918.935,VALID,0.0,VALID,98.526,VALID,0.006,VALID,21.147,VALID,13.0,VALID,0.0,
2017-04-18, 00:21:06,VALID,918.917,VALID,0.0,VALID,98.546,VALID,0.007,VALID,21.205,VALID,13.0,VALID,0.0,
2017-04-18, 00:22:06,VALID,918.92,VALID,0.0,VALID,98.532,VALID,-0.001,VALID,21.22,VALID,13.0,VALID,0.0,
2017-04-18, 00:23:06,VALID,918.926,VALID,0.0,VALID,98.506,VALID,0.001,VALID,21.22,VALID,13.0,VALID,0.0,
2017-04-18, 00:24:06,VALID,918.923,VALID,0.0,VALID,98.502,VALID,0.007,VALID,21.197,VALID,13.0,VALID,0.0,
2017-04-18, 00:25:06,VALID,918.943,VALID,0.0,VALID,98.497,VALID,0.004,VALID,21.186,VALID,295.0,VALID,0.024,
2017-04-18, 00:26:06,VALID,918.956,VALID,0.0,VALID,98.465,VALID,0.002,VALID,21.126,VALID,141.0,VALID,0.175,
2017-04-18, 00:27:06,VALID,918.955,VALID,0.0,VALID,98.451,VALID,-0.006,VALID,21.099,VALID,100.0,VALID,0.011,
2017-04-18, 00:28:06,VALID,918.951,VALID,0.0,VALID,98.462,VALID,0.016,VALID,21.121,VALID,88.0,VALID,0.037,
2017-04-18, 00:29:06,VALID,918.932,VALID,0.0,VALID,98.432,VALID,0.013,VALID,21.086,VALID,88.0,VALID,0.0,
2017-04-18, 00:30:06,VALID,918.894,VALID,0.0,VALID,98.458,VALID,0.007,VALID,21.08,VALID,242.0,VALID,0.45,
2017-04-18, 00:31:06,VALID,918.864,VALID,0.0,VALID,98.362,VALID,0.016,VALID,21.025,VALID,258.0,VALID,0.368,
2017-04-18, 00:32:06,VALID,918.836,VALID,0.0,VALID,98.41,VALID,0.03,VALID,21.018,VALID,241.0,VALID,0.249,
2017-04-18, 00:33:06,VALID,918.812,VALID,0.0,VALID,98.434,VALID,0.003,VALID,21.022,VALID,271.0,VALID,0.112,
2017-04-18, 00:34:06,VALID,918.788,VALID,0.0,VALID,98.45,VALID,0.004,VALID,21.036,VALID,268.0,VALID,0.016,
2017-04-18, 00:35:06,VALID,918.775,VALID,0.0,VALID,98.457,VALID,-0.001,VALID,21.051,VALID,268.0,VALID,0.042,
2017-04-18, 00:36:06,VALID,918.768,VALID,0.0,VALID,98.452,VALID,0.0,VALID,21.03,VALID,268.0,VALID,0.007,
2017-04-18, 00:37:06,VALID,918.759,VALID,0.0,VALID,98.441,VALID,0.005,VALID,21.02,VALID,268.0,VALID,0.0,
2017-04-18, 00:38:06,VALID,918.752,VALID,0.0,VALID,98.51,VALID,0.009,VALID,21.053,VALID,268.0,VALID,0.0,
2017-04-18, 00:39:06,VALID,918.744,VALID,0.0,VALID,98.503,VALID,-0.003,VALID,21.098,VALID,268.0,VALID,0.0,
2017-04-18, 00:40:06,VALID,918.723,VALID,0.0,VALID,98.526,VALID,-0.002,VALID,21.112,VALID,245.0,VALID,0.0,
2017-04-18, 00:41:06,VALID,918.694,VALID,0.0,VALID,98.512,VALID,-0.002,VALID,21.119,VALID,241.0,VALID,0.0,
2017-04-18, 00:42:06,VALID,918.671,VALID,0.0,VALID,98.48,VALID,-0.009,VALID,21.111,VALID,241.0,VALID,0.032,
2017-04-18, 00:43:06,VALID,918.674,VALID,0.0,VALID,98.43,VALID,0.003,VALID,21.067,VALID,254.0,VALID,0.232,
2017-04-18, 00:44:06,VALID,918.672,VALID,0.0,VALID,98.423,VALID,0.004,VALID,21.045,VALID,270.0,VALID,0.131,
2017-04-18, 00:45:06,VALID,918.664,VALID,0.0,VALID,98.441,VALID,0.002,VALID,21.036,VALID,297.0,VALID,0.125,
2017-04-18, 00:46:06,VALID,918.664,VALID,0.0,VALID,98.449,VALID,0.011,VALID,21.044,VALID,347.0,VALID,0.341,
2017-04-18, 00:47:06,VALID,918.666,VALID,0.0,VALID,98.507,VALID,0.002,VALID,21.107,VALID,26.0,VALID,0.3,
2017-04-18, 00:48:06,VALID,918.65,VALID,0.0,VALID,98.523,VALID,-0.001,VALID,21.117,VALID,32.0,VALID,0.365,
2017-04-18, 00:49:06,VALID,918.643,VALID,0.0,VALID,98.504,VALID,-0.003,VALID,21.111,VALID,30.0,VALID,0.204,
2017-04-18, 00:50:06,VALID,918.62,VALID,0.0,VALID,98.482,VALID,-0.004,VALID,21.09,VALID,339.0,VALID,0.144,
2017-04-18, 00:51:06,VALID,918.633,VALID,0.0,VALID,98.462,VALID,-0.005,VALID,21.057,VALID,265.0,VALID,0.0,
2017-04-18, 00:52:06,VALID,918.64,VALID,0.0,VALID,98.491,VALID,0.001,VALID,21.072,VALID,255.0,VALID,0.015,
2017-04-18, 00:53:06,VALID,918.647,VALID,0.0,VALID,98.494,VALID,0.003,VALID,21.093,VALID,244.0,VALID,0.07,
2017-04-18, 00:54:06,VALID,918.65,VALID,0.0,VALID,98.471,VALID,0.003,VALID,21.091,VALID,231.0,VALID,0.007,
2017-04-18, 00:55:06,VALID,918.644,VALID,0.0,VALID,98.497,VALID,-0.006,VALID,21.099,VALID,231.0,VALID,0.119,
2017-04-18, 00:56:06,VALID,918.651,VALID,0.0,VALID,98.51,VALID,0.006,VALID,21.121,VALID,346.0,VALID,0.208,
2017-04-18, 00:57:06,VALID,918.656,VALID,0.0,VALID,98.521,VALID,0.011,VALID,21.145,VALID,18.0,VALID,0.302,
2017-04-18, 00:58:06,VALID,918.662,VALID,0.0,VALID,98.529,VALID,0.01,VALID,21.178,VALID,20.0,VALID,0.284,
2017-04-18, 00:59:06,VALID,918.663,VALID,0.0,VALID,98.551,VALID,0.008,VALID,21.21,VALID,26.0,VALID,0.333,
2017-04-18, 01:00:06,VALID,918.65,VALID,0.0,VALID,98.559,VALID,0.0,VALID,21.23,VALID,24.0,VALID,0.571,
2017-04-18, 01:01:06,VALID,918.636,VALID,0.0,VALID,98.488,VALID,0.009,VALID,21.2,VALID,29.0,VALID,0.433,
2017-04-18, 01:02:06,VALID,918.598,VALID,0.0,VALID,98.488,VALID,-0.002,VALID,21.188,VALID,25.0,VALID,0.353,
2017-04-18, 01:03:06,VALID,918.575,VALID,0.0,VALID,98.477,VALID,-0.015,VALID,21.167,VALID,357.0,VALID,0.146,
2017-04-18, 01:04:06,VALID,918.537,VALID,0.0,VALID,98.464,VALID,0.001,VALID,21.134,VALID,347.0,VALID,0.453,
2017-04-18, 01:05:06,VALID,918.502,VALID,0.0,VALID,98.356,VALID,-0.007,VALID,21.036,VALID,355.0,VALID,0.371,
2017-04-18, 01:06:06,VALID,918.483,VALID,0.0,VALID,98.399,VALID,0.014,VALID,21.004,VALID,352.0,VALID,0.005,
2017-04-18, 01:07:06,VALID,918.453,VALID,0.0,VALID,98.435,VALID,0.013,VALID,21.016,VALID,28.0,VALID,0.306,
2017-04-18, 01:08:06,VALID,918.443,VALID,0.0,VALID,98.49,VALID,0.028,VALID,21.069,VALID,32.0,VALID,0.141,
2017-04-18, 01:09:06,VALID,918.442,VALID,0.0,VALID,98.516,VALID,0.016,VALID,21.096,VALID,25.0,VALID,0.354,
2017-04-18, 01:10:06,VALID,918.438,VALID,0.0,VALID,98.506,VALID,0.014,VALID,21.106,VALID,14.0,VALID,0.685,
2017-04-18, 01:11:06,VALID,918.43,VALID,0.0,VALID,98.519,VALID,0.007,VALID,21.14,VALID,14.0,VALID,0.291,
2017-04-18, 01:12:06,VALID,918.43,VALID,0.0,VALID,98.532,VALID,0.022,VALID,21.169,VALID,19.0,VALID,0.191,
2017-04-18, 01:13:06,VALID,918.423,VALID,0.0,VALID,98.525,VALID,0.028,VALID,21.165,VALID,23.0,VALID,0.152,
2017-04-18, 01:14:06,VALID,918.418,VALID,0.0,VALID,98.457,VALID,0.008,VALID,21.089,VALID,2.0,VALID,0.823,
2017-04-18, 01:15:06,VALID,918.39,VALID,0.0,VALID,98.385,VALID,0.016,VALID,20.986,VALID,7.0,VALID,1.1,
2017-04-18, 01:16:06,VALID,918.385,VALID,0.0,VALID,98.372,VALID,0.013,VALID,20.951,VALID,4.0,VALID,0.949,
2017-04-18, 01:17:06,VALID,918.363,VALID,0.0,VALID,98.433,VALID,0.025,VALID,20.978,VALID,16.0,VALID,0.678,
2017-04-18, 01:18:06,VALID,918.365,VALID,0.0,VALID,98.465,VALID,0.019,VALID,21.006,VALID,19.0,VALID,0.7,
2017-04-18, 01:19:06,VALID,918.34,VALID,0.0,VALID,98.47,VALID,0.026,VALID,21.017,VALID,19.0,VALID,0.866,
2017-04-18, 01:20:06,VALID,918.344,VALID,0.0,VALID,98.464,VALID,0.033,VALID,20.995,VALID,6.0,VALID,0.953,
2017-04-18, 01:21:06,VALID,918.335,VALID,0.0,VALID,98.417,VALID,0.007,VALID,20.944,VALID,15.0,VALID,0.849,
2017-04-18, 01:22:06,VALID,918.324,VALID,0.0,VALID,98.462,VALID,-0.008,VALID,20.969,VALID,354.0,VALID,0.588,
2017-04-18, 01:23:06,VALID,918.319,VALID,0.0,VALID,98.455,VALID,0.006,VALID,20.931,VALID,14.0,VALID,1.102,
2017-04-18, 01:24:06,VALID,918.309,VALID,0.0,VALID,98.475,VALID,-0.005,VALID,20.952,VALID,22.0,VALID,1.084,
2017-04-18, 01:25:06,VALID,918.29,VALID,0.0,VALID,98.484,VALID,-0.007,VALID,20.961,VALID,19.0,VALID,0.958,
2017-04-18, 01:26:06,VALID,918.294,VALID,0.0,VALID,98.446,VALID,0.012,VALID,20.934,VALID,13.0,VALID,0.857,
2017-04-18, 01:27:06,VALID,918.286,VALID,0.0,VALID,98.47,VALID,-0.004,VALID,20.947,VALID,5.0,VALID,0.904,
2017-04-18, 01:28:06,VALID,918.267,VALID,0.0,VALID,98.475,VALID,-0.015,VALID,20.938,VALID,353.0,VALID,0.605,
2017-04-18, 01:29:06,VALID,918.249,VALID,0.0,VALID,98.42,VALID,-0.028,VALID,20.901,VALID,358.0,VALID,0.77,
2017-04-18, 01:30:06,VALID,918.25,VALID,0.0,VALID,98.422,VALID,-0.029,VALID,20.883,VALID,9.0,VALID,1.257,
2017-04-18, 01:31:06,VALID,918.247,VALID,0.0,VALID,98.49,VALID,-0.018,VALID,20.912,VALID,358.0,VALID,0.406,
2017-04-18, 01:32:06,VALID,918.253,VALID,0.0,VALID,98.503,VALID,-0.014,VALID,20.946,VALID,10.0,VALID,0.587,
2017-04-18, 01:33:06,VALID,918.239,VALID,0.0,VALID,98.474,VALID,-0.022,VALID,20.915,VALID,349.0,VALID,0.687,
2017-04-18, 01:34:06,VALID,918.233,VALID,0.0,VALID,98.494,VALID,-0.024,VALID,20.914,VALID,348.0,VALID,0.583,
2017-04-18, 01:35:06,VALID,918.218,VALID,0.0,VALID,98.482,VALID,-0.019,VALID,20.898,VALID,358.0,VALID,0.409,
2017-04-18, 01:36:06,VALID,918.196,VALID,0.0,VALID,98.495,VALID,0.001,VALID,20.89,VALID,15.0,VALID,0.748,
2017-04-18, 01:37:06,VALID,918.181,VALID,0.0,VALID,98.483,VALID,0.017,VALID,20.885,VALID,15.0,VALID,0.492,
2017-04-18, 01:38:06,VALID,918.166,VALID,0.0,VALID,98.526,VALID,0.017,VALID,20.93,VALID,16.0,VALID,0.482,
2017-04-18, 01:39:06,VALID,918.156,VALID,0.0,VALID,98.518,VALID,0.008,VALID,20.94,VALID,334.0,VALID,0.432,
2017-04-18, 01:40:06,VALID,918.149,VALID,0.0,VALID,98.455,VALID,0.015,VALID,20.901,VALID,337.0,VALID,0.913,
2017-04-18, 01:41:06,VALID,918.138,VALID,0.0,VALID,98.475,VALID,0.019,VALID,20.867,VALID,9.0,VALID,0.834,
2017-04-18, 01:42:06,VALID,918.132,VALID,0.0,VALID,98.474,VALID,0.008,VALID,20.853,VALID,8.0,VALID,0.538,
2017-04-18, 01:43:06,VALID,918.119,VALID,0.0,VALID,98.523,VALID,0.006,VALID,20.87,VALID,3.0,VALID,0.737,
2017-04-18, 01:44:06,VALID,918.11,VALID,0.0,VALID,98.514,VALID,-0.0,VALID,20.876,VALID,37.0,VALID,0.358,
2017-04-18, 01:45:06,VALID,918.102,VALID,0.0,VALID,98.56,VALID,0.015,VALID,20.924,VALID,3.0,VALID,0.361,
2017-04-18, 01:46:06,VALID,918.086,VALID,0.0,VALID,98.483,VALID,0.013,VALID,20.879,VALID,348.0,VALID,0.393,
2017-04-18, 01:47:06,VALID,918.087,VALID,0.0,VALID,98.478,VALID,0.018,VALID,20.846,VALID,17.0,VALID,1.127,
2017-04-18, 01:48:06,VALID,918.078,VALID,0.0,VALID,98.544,VALID,0.009,VALID,20.877,VALID,8.0,VALID,0.5,
2017-04-18, 01:49:06,VALID,918.067,VALID,0.0,VALID,98.555,VALID,0.013,VALID,20.918,VALID,26.0,VALID,0.573,
2017-04-18, 01:50:06,VALID,918.053,VALID,0.0,VALID,98.564,VALID,0.024,VALID,20.948,VALID,7.0,VALID,0.263,
2017-04-18, 01:51:06,VALID,918.035,VALID,0.0,VALID,98.544,VALID,0.002,VALID,20.927,VALID,16.0,VALID,1.053,
2017-04-18, 01:52:06,VALID,918.018,VALID,0.0,VALID,98.568,VALID,-0.022,VALID,20.945,VALID,2.0,VALID,0.991,
2017-04-18, 01:53:06,VALID,918.013,VALID,0.0,VALID,98.499,VALID,-0.018,VALID,20.892,VALID,6.0,VALID,0.573,
2017-04-18, 01:54:06,VALID,917.996,VALID,0.0,VALID,98.512,VALID,-0.039,VALID,20.89,VALID,16.0,VALID,0.8,
2017-04-18, 01:55:06,VALID,917.972,VALID,0.0,VALID,98.509,VALID,-0.034,VALID,20.873,VALID,24.0,VALID,0.994,
2017-04-18, 01:56:06,VALID,917.973,VALID,0.0,VALID,98.509,VALID,-0.028,VALID,20.87,VALID,18.0,VALID,1.205,
2017-04-18, 01:57:06,VALID,917.961,VALID,0.0,VALID,98.517,VALID,-0.012,VALID,20.878,VALID,357.0,VALID,0.914,
2017-04-18, 01:58:06,VALID,917.961,VALID,0.0,VALID,98.485,VALID,-0.022,VALID,20.838,VALID,17.0,VALID,0.796,
2017-04-18, 01:59:06,VALID,917.963,VALID,0.0,VALID,98.499,VALID,-0.02,VALID,20.843,VALID,351.0,VALID,0.98,
2017-04-18, 02:00:06,VALID,917.959,VALID,0.0,VALID,98.471,VALID,-0.024,VALID,20.784,VALID,354.0,VALID,1.205,
2017-04-18, 02:01:06,VALID,917.961,VALID,0.0,VALID,98.47,VALID,-0.005,VALID,20.763,VALID,10.0,VALID,1.207,
2017-04-18, 02:02:06,VALID,917.956,VALID,0.0,VALID,98.533,VALID,-0.004,VALID,20.813,VALID,356.0,VALID,0.522,
2017-04-18, 02:03:06,VALID,917.943,VALID,0.0,VALID,98.505,VALID,-0.02,VALID,20.796,VALID,7.0,VALID,1.134,
2017-04-18, 02:04:06,VALID,917.936,VALID,0.0,VALID,98.482,VALID,0.003,VALID,20.751,VALID,15.0,VALID,0.536,
2017-04-18, 02:05:06,VALID,917.921,VALID,0.0,VALID,98.532,VALID,-0.018,VALID,20.777,VALID,24.0,VALID,0.71,
2017-04-18, 02:06:06,VALID,917.914,VALID,0.0,VALID,98.517,VALID,-0.007,VALID,20.754,VALID,337.0,VALID,0.629,
2017-04-18, 02:07:06,VALID,917.905,VALID,0.0,VALID,98.471,VALID,0.009,VALID,20.725,VALID,316.0,VALID,0.45,
2017-04-18, 02:08:06,VALID,917.876,VALID,0.0,VALID,98.477,VALID,-0.0,VALID,20.712,VALID,10.0,VALID,0.599,
2017-04-18, 02:09:06,VALID,917.867,VALID,0.0,VALID,98.526,VALID,-0.005,VALID,20.736,VALID,26.0,VALID,0.841,
2017-04-18, 02:10:06,VALID,917.857,VALID,0.0,VALID,98.563,VALID,0.013,VALID,20.775,VALID,4.0,VALID,0.679,
2017-04-18, 02:11:06,VALID,917.857,VALID,0.0,VALID,98.577,VALID,0.029,VALID,20.809,VALID,13.0,VALID,0.474,
2017-04-18, 02:12:06,VALID,917.87,VALID,0.0,VALID,98.575,VALID,0.0,VALID,20.832,VALID,30.0,VALID,0.295,
2017-04-18, 02:13:06,VALID,917.874,VALID,0.0,VALID,98.546,VALID,-0.0,VALID,20.832,VALID,356.0,VALID,0.195,
2017-04-18, 02:14:06,VALID,917.878,VALID,0.0,VALID,98.52,VALID,-0.003,VALID,20.778,VALID,1.0,VALID,0.747,
2017-04-18, 02:15:06,VALID,917.879,VALID,0.0,VALID,98.47,VALID,0.012,VALID,20.719,VALID,330.0,VALID,1.052,
2017-04-18, 02:16:06,VALID,917.884,VALID,0.0,VALID,98.463,VALID,0.019,VALID,20.706,VALID,342.0,VALID,0.571,
2017-04-18, 02:17:06,VALID,917.877,VALID,0.0,VALID,98.497,VALID,0.009,VALID,20.697,VALID,26.0,VALID,0.791,
2017-04-18, 02:18:06,VALID,917.869,VALID,0.0,VALID,98.518,VALID,0.004,VALID,20.727,VALID,14.0,VALID,0.762,
2017-04-18, 02:19:06,VALID,917.846,VALID,0.0,VALID,98.485,VALID,0.002,VALID,20.694,VALID,344.0,VALID,1.606,
2017-04-18, 02:20:06,VALID,917.832,VALID,0.0,VALID,98.469,VALID,0.019,VALID,20.66,VALID,1.0,VALID,1.6,
2017-04-18, 02:21:06,VALID,917.804,VALID,0.0,VALID,98.509,VALID,0.0,VALID,20.661,VALID,4.0,VALID,1.17,
2017-04-18, 02:22:06,VALID,917.778,VALID,0.0,VALID,98.496,VALID,0.001,VALID,20.665,VALID,321.0,VALID,0.611,
2017-04-18, 02:23:06,VALID,917.756,VALID,0.0,VALID,98.533,VALID,0.014,VALID,20.694,VALID,13.0,VALID,0.762,
2017-04-18, 02:24:06,VALID,917.728,VALID,0.0,VALID,98.532,VALID,0.0,VALID,20.709,VALID,7.0,VALID,1.091,
2017-04-18, 02:25:06,VALID,917.717,VALID,0.0,VALID,98.521,VALID,-0.001,VALID,20.692,VALID,3.0,VALID,1.382,
2017-04-18, 02:26:06,VALID,917.713,VALID,0.0,VALID,98.517,VALID,0.014,VALID,20.695,VALID,13.0,VALID,1.304,
2017-04-18, 02:27:06,VALID,917.725,VALID,0.0,VALID,98.547,VALID,-0.005,VALID,20.719,VALID,319.0,VALID,0.853,
2017-04-18, 02:28:06,VALID,917.712,VALID,0.0,VALID,98.446,VALID,-0.0,VALID,20.649,VALID,344.0,VALID,0.924,
2017-04-18, 02:29:06,VALID,917.695,VALID,0.0,VALID,98.456,VALID,-0.006,VALID,20.626,VALID,18.0,VALID,0.943,
2017-04-18, 02:30:06,VALID,917.691,VALID,0.0,VALID,98.5,VALID,-0.001,VALID,20.648,VALID,32.0,VALID,0.809,
2017-04-18, 02:31:06,VALID,917.682,VALID,0.0,VALID,98.511,VALID,-0.006,VALID,20.658,VALID,350.0,VALID,0.429,
2017-04-18, 02:32:06,VALID,917.68,VALID,0.0,VALID,98.476,VALID,-0.001,VALID,20.632,VALID,317.0,VALID,0.811,
2017-04-18, 02:33:06,VALID,917.675,VALID,0.0,VALID,98.46,VALID,0.002,VALID,20.601,VALID,346.0,VALID,0.526,
2017-04-18, 02:34:06,VALID,917.682,VALID,0.0,VALID,98.51,VALID,-0.004,VALID,20.619,VALID,353.0,VALID,0.566,
2017-04-18, 02:35:06,VALID,917.677,VALID,0.0,VALID,98.526,VALID,-0.005,VALID,20.637,VALID,3.0,VALID,0.393,
2017-04-18, 02:36:06,VALID,917.698,VALID,0.0,VALID,98.56,VALID,0.007,VALID,20.658,VALID,356.0,VALID,0.34,
2017-04-18, 02:37:06,VALID,917.708,VALID,0.0,VALID,98.511,VALID,0.021,VALID,20.635,VALID,314.0,VALID,0.195,
2017-04-18, 02:38:06,VALID,917.691,VALID,0.0,VALID,98.501,VALID,0.005,VALID,20.641,VALID,322.0,VALID,0.057,
2017-04-18, 02:39:06,VALID,917.677,VALID,0.0,VALID,98.544,VALID,0.02,VALID,20.663,VALID,352.0,VALID,0.585,
2017-04-18, 02:40:06,VALID,917.67,VALID,0.0,VALID,98.5,VALID,0.006,VALID,20.634,VALID,347.0,VALID,0.455,
2017-04-18, 02:41:06,VALID,917.647,VALID,0.0,VALID,98.511,VALID,0.004,VALID,20.636,VALID,358.0,VALID,0.329,
2017-04-18, 02:42:06,VALID,917.652,VALID,0.0,VALID,98.543,VALID,0.011,VALID,20.69,VALID,1.0,VALID,0.621,
2017-04-18, 02:43:06,VALID,917.64,VALID,0.0,VALID,98.534,VALID,0.013,VALID,20.688,VALID,15.0,VALID,0.85,
2017-04-18, 02:44:06,VALID,917.643,VALID,0.0,VALID,98.553,VALID,0.012,VALID,20.705,VALID,336.0,VALID,1.135,
2017-04-18, 02:45:06,VALID,917.639,VALID,0.0,VALID,98.413,VALID,0.014,VALID,20.602,VALID,270.0,VALID,0.529,
2017-04-18, 02:46:06,VALID,917.643,VALID,0.0,VALID,98.417,VALID,0.004,VALID,20.567,VALID,6.0,VALID,0.792,
2017-04-18, 02:47:06,VALID,917.647,VALID,0.0,VALID,98.482,VALID,0.0,VALID,20.598,VALID,13.0,VALID,0.452,
2017-04-18, 02:48:06,VALID,917.628,VALID,0.0,VALID,98.515,VALID,0.013,VALID,20.625,VALID,31.0,VALID,0.609,
2017-04-18, 02:49:06,VALID,917.616,VALID,0.0,VALID,98.537,VALID,0.022,VALID,20.657,VALID,8.0,VALID,0.563,
2017-04-18, 02:50:06,VALID,917.602,VALID,0.0,VALID,98.549,VALID,0.019,VALID,20.702,VALID,352.0,VALID,0.18,
2017-04-18, 02:51:06,VALID,917.582,VALID,0.0,VALID,98.558,VALID,-0.002,VALID,20.701,VALID,294.0,VALID,0.01,
2017-04-18, 02:52:06,VALID,917.574,VALID,0.0,VALID,98.541,VALID,0.015,VALID,20.701,VALID,344.0,VALID,0.052,
2017-04-18, 02:53:06,VALID,917.561,VALID,0.0,VALID,98.535,VALID,0.015,VALID,20.722,VALID,343.0,VALID,0.0,
2017-04-18, 02:54:06,VALID,917.558,VALID,0.0,VALID,98.546,VALID,-0.001,VALID,20.728,VALID,303.0,VALID,0.043,
2017-04-18, 02:55:06,VALID,917.544,VALID,0.0,VALID,98.481,VALID,0.013,VALID,20.695,VALID,226.0,VALID,0.223,
2017-04-18, 02:56:06,VALID,917.5,VALID,0.0,VALID,98.45,VALID,0.017,VALID,20.655,VALID,242.0,VALID,0.273,
2017-04-18, 02:57:06,VALID,917.502,VALID,0.0,VALID,98.457,VALID,0.007,VALID,20.632,VALID,255.0,VALID,0.447,
2017-04-18, 02:58:06,VALID,917.487,VALID,0.0,VALID,98.463,VALID,0.015,VALID,20.618,VALID,316.0,VALID,0.239,
2017-04-18, 02:59:06,VALID,917.483,VALID,0.0,VALID,98.511,VALID,0.004,VALID,20.66,VALID,5.0,VALID,0.07,
2017-04-18, 03:00:06,VALID,917.478,VALID,0.0,VALID,98.53,VALID,0.021,VALID,20.682,VALID,5.0,VALID,0.042,
2017-04-18, 03:01:06,VALID,917.473,VALID,0.0,VALID,98.561,VALID,-0.003,VALID,20.728,VALID,25.0,VALID,0.495,
2017-04-18, 03:02:06,VALID,917.461,VALID,0.0,VALID,98.545,VALID,0.005,VALID,20.731,VALID,14.0,VALID,0.768,
2017-04-18, 03:03:06,VALID,917.439,VALID,0.0,VALID,98.541,VALID,-0.009,VALID,20.724,VALID,10.0,VALID,0.911,
2017-04-18, 03:04:06,VALID,917.409,VALID,0.0,VALID,98.488,VALID,-0.003,VALID,20.699,VALID,350.0,VALID,1.128,
2017-04-18, 03:05:06,VALID,917.391,VALID,0.0,VALID,98.484,VALID,-0.002,VALID,20.678,VALID,360.0,VALID,0.99,
2017-04-18, 03:06:06,VALID,917.37,VALID,0.0,VALID,98.502,VALID,-0.004,VALID,20.666,VALID,349.0,VALID,0.866,
2017-04-18, 03:07:06,VALID,917.347,VALID,0.0,VALID,98.466,VALID,-0.017,VALID,20.64,VALID,336.0,VALID,0.544,
2017-04-18, 03:08:06,VALID,917.346,VALID,0.0,VALID,98.416,VALID,-0.007,VALID,20.58,VALID,343.0,VALID,0.719,
2017-04-18, 03:09:06,VALID,917.335,VALID,0.0,VALID,98.431,VALID,0.004,VALID,20.571,VALID,5.0,VALID,0.627,
2017-04-18, 03:10:06,VALID,917.333,VALID,0.0,VALID,98.502,VALID,-0.001,VALID,20.613,VALID,5.0,VALID,0.791,
2017-04-18, 03:11:06,VALID,917.325,VALID,0.0,VALID,98.474,VALID,-0.012,VALID,20.584,VALID,17.0,VALID,1.065,
2017-04-18, 03:12:06,VALID,917.319,VALID,0.0,VALID,98.47,VALID,-0.01,VALID,20.589,VALID,13.0,VALID,0.952,
2017-04-18, 03:13:06,VALID,917.316,VALID,0.0,VALID,98.525,VALID,-0.005,VALID,20.608,VALID,35.0,VALID,0.42,
2017-04-18, 03:14:06,VALID,917.309,VALID,0.0,VALID,98.53,VALID,-0.002,VALID,20.653,VALID,4.0,VALID,0.354,
2017-04-18, 03:15:06,VALID,917.301,VALID,0.0,VALID,98.501,VALID,-0.007,VALID,20.656,VALID,351.0,VALID,0.477,
2017-04-18, 03:16:06,VALID,917.303,VALID,0.0,VALID,98.469,VALID,-0.018,VALID,20.618,VALID,19.0,VALID,0.076,
2017-04-18, 03:17:06,VALID,917.288,VALID,0.0,VALID,98.515,VALID,-0.014,VALID,20.66,VALID,40.0,VALID,0.172,
2017-04-18, 03:18:06,VALID,917.262,VALID,0.0,VALID,98.503,VALID,-0.017,VALID,20.674,VALID,22.0,VALID,0.171,
2017-04-18, 03:19:06,VALID,917.248,VALID,0.0,VALID,98.523,VALID,-0.014,VALID,20.683,VALID,21.0,VALID,0.045,
2017-04-18, 03:20:06,VALID,917.241,VALID,0.0,VALID,98.512,VALID,-0.014,VALID,20.688,VALID,8.0,VALID,0.174,
2017-04-18, 03:21:06,VALID,917.228,VALID,0.0,VALID,98.523,VALID,-0.013,VALID,20.678,VALID,7.0,VALID,0.406,
2017-04-18, 03:22:06,VALID,917.21,VALID,0.0,VALID,98.515,VALID,-0.01,VALID,20.699,VALID,12.0,VALID,0.717,
2017-04-18, 03:23:06,VALID,917.211,VALID,0.0,VALID,98.494,VALID,-0.009,VALID,20.675,VALID,5.0,VALID,0.898,
2017-04-18, 03:24:06,VALID,917.229,VALID,0.0,VALID,98.436,VALID,-0.009,VALID,20.647,VALID,283.0,VALID,0.269,
2017-04-18, 03:25:06,VALID,917.223,VALID,0.0,VALID,98.459,VALID,-0.007,VALID,20.628,VALID,4.0,VALID,0.332,
2017-04-18, 03:26:06,VALID,917.223,VALID,0.0,VALID,98.454,VALID,-0.005,VALID,20.619,VALID,3.0,VALID,0.276,
2017-04-18, 03:27:06,VALID,917.208,VALID,0.0,VALID,98.445,VALID,0.008,VALID,20.619,VALID,30.0,VALID,0.62,
2017-04-18, 03:28:06,VALID,917.187,VALID,0.0,VALID,98.435,VALID,-0.006,VALID,20.603,VALID,356.0,VALID,0.802,
2017-04-18, 03:29:06,VALID,917.174,VALID,0.0,VALID,98.445,VALID,-0.009,VALID,20.594,VALID,17.0,VALID,0.726,
2017-04-18, 03:30:06,VALID,917.155,VALID,0.0,VALID,98.45,VALID,-0.01,VALID,20.599,VALID,356.0,VALID,0.595,
2017-04-18, 03:31:06,VALID,917.151,VALID,0.0,VALID,98.455,VALID,-0.003,VALID,20.59,VALID,340.0,VALID,0.027,
2017-04-18, 03:32:06,VALID,917.154,VALID,0.0,VALID,98.467,VALID,-0.004,VALID,20.592,VALID,320.0,VALID,0.0,
2017-04-18, 03:33:06,VALID,917.148,VALID,0.0,VALID,98.457,VALID,-0.013,VALID,20.582,VALID,337.0,VALID,0.255,
2017-04-18, 03:34:06,VALID,917.168,VALID,0.0,VALID,98.443,VALID,-0.01,VALID,20.571,VALID,294.0,VALID,0.227,
2017-04-18, 03:35:06,VALID,917.169,VALID,0.0,VALID,98.408,VALID,-0.012,VALID,20.539,VALID,286.0,VALID,0.315,
2017-04-18, 03:36:06,VALID,917.181,VALID,0.0,VALID,98.352,VALID,0.005,VALID,20.48,VALID,256.0,VALID,0.243,
2017-04-18, 03:37:06,VALID,917.192,VALID,0.0,VALID,98.402,VALID,0.004,VALID,20.502,VALID,5.0,VALID,0.185,
2017-04-18, 03:38:06,VALID,917.186,VALID,0.0,VALID,98.458,VALID,0.005,VALID,20.544,VALID,359.0,VALID,0.223,
2017-04-18, 03:39:06,VALID,917.183,VALID,0.0,VALID,98.482,VALID,0.004,VALID,20.554,VALID,346.0,VALID,0.0,
2017-04-18, 03:40:06,VALID,917.164,VALID,0.0,VALID,98.45,VALID,0.007,VALID,20.552,VALID,355.0,VALID,0.248,